Location: Bethera
(33.2010°N, 79.7880°W)
Time: 18:48:42
(UTC-04:00)

Daily predictions for brighter satellites

Satellite Brightness Start Highest point End
(mag) Time Altitude Azimuth Time Altitude Azimuth Time Altitude Azimuth
Timation 2 Rocket 4.3 20:41:02 10° NNW 20:47:16 56° ENE 20:53:46 10° SE
Cosmos 1346 Rocket 4.3 20:47:09 10° NNE 20:50:11 21° ENE 20:53:14 10° SE
Cosmos 1513 Rocket 4.5 20:46:16 10° N 20:52:21 82° E 20:58:27 10° S
Aurora 2 Rocket 4.3 20:47:53 10° WSW 20:53:10 27° SSW 20:57:08 10° SE
Cosmos 1939 Rocket 4.1 20:50:02 10° SE 20:53:30 26° ENE 20:56:58 10° NNE
Cosmos 1933 3.4 20:52:32 10° N 20:56:31 60° E 21:00:28 10° SSE
COSMOS 2487 2.5 20:53:50 10° NNW 20:57:23 88° WSW 21:00:55 10° SSE
Cosmos 1937 Rocket 3.5 20:54:12 10° SSW 20:59:19 87° WNW 21:04:29 10° NNE
H-2A ROCKET BODY 1.5 20:58:24 10° WSW 21:00:28 36° S 21:05:06 10° ESE
Meteor 2-10 Rocket 3.8 20:56:23 10° N 21:02:14 79° E 21:07:59 10° SSE
GPS 2-04 Rocket1 3.0 20:59:26 10° W 21:03:12 59° N 21:06:47 10° ENE
Resurs 1-3 3.8 21:05:20 10° S 21:09:42 77° WSW 21:14:05 10° NNW
Cosmos 2150 Rocket 4.4 21:06:30 10° SSW 21:11:52 70° WNW 21:17:11 10° NNE
Cosmos 1470 Rocket 4.4 21:07:44 10° SSW 21:12:07 57° W 21:16:32 10° N
Hubble Space Telescope 2.7 21:10:24 10° WSW 21:13:20 19° SSW 21:16:13 10° SSE
Meteor 1-29 3.8 21:12:51 10° NE 21:15:57 29° E 21:18:51 11° SSE
Cosmos 1703 Rocket 4.5 21:12:32 10° NNE 21:16:25 30° ENE 21:19:18 15° SE
Meteor 2-3 Rocket 3.7 21:11:17 10° S 21:16:59 73° E 21:22:39 10° NNE
SJ-11-01 4.5 21:14:24 10° SSE 21:19:00 54° ENE 21:23:35 10° N
Cosmos 1408 4.2 21:18:02 16° ESE 21:19:16 18° E 21:21:54 10° NE
Milstar 3 4.0 21:08:23 10° WSW 21:22:12 50° SSE 21:29:45 11° E
Cosmos 2082 Rocket 3.6 21:17:36 10° NW 21:22:46 38° WSW 21:27:57 10° S
Meteor 1-26 Rocket 4.2 21:18:01 10° N 21:23:42 76° E 21:29:28 10° SSE
ERS-1 Rocket 4.1 21:23:32 16° ESE 21:26:28 27° ENE 21:30:41 10° NNE
Star 37E S/N 40062 3.9 21:24:41 10° WSW 21:26:38 34° S 21:28:22 20° SE
Cosmos 1782 4.3 21:25:06 10° NNE 21:28:06 20° ENE 21:29:11 18° E
Cosmos 2344 4.0 21:21:46 10° S 21:28:49 38° ESE 21:35:57 10° NE
Cosmos 1825 3.4 21:28:21 21° ESE 21:29:28 24° E 21:32:32 10° NE
Cosmos 1869 Rocket 3.7 21:26:45 10° SSE 21:30:54 48° E 21:35:06 10° NNE
Cosmos 1833 Rocket 4.3 21:26:47 10° NW 21:31:44 32° WSW 21:36:39 10° SSW
Spot 2 Rocket 4.4 21:26:51 10° S 21:31:46 50° W 21:36:44 10° NNW
Helios 1B rocket 2.4 21:35:15 10° NNE 21:39:22 90° WNW 21:43:28 10° SSW
Cosmos 2084 4.3 21:36:15 10° N 21:39:43 31° NE 21:41:16 23° E
USA 215 4.5 21:35:07 11° E 21:40:18 30° NE 21:45:51 10° NNW
OAO 3 Copernicus 4.2 21:40:27 10° WSW 21:45:28 74° SSE 21:49:31 16° E
Cosmos 1892 4.2 21:42:55 10° SSW 21:46:30 37° W 21:50:05 10° NNW
USA 186 4.2 21:46:23 10° SW 21:48:01 15° W 21:49:42 10° NW
Lacrosse 4 Rocket 3.5 21:45:40 10° NNE 21:48:15 15° NE 21:49:28 14° ENE
Cosmos 1943 Rocket 2.1 21:45:01 10° S 21:50:33 65° ESE 21:56:04 10° NNE
ISS -0.8 21:48:22 10° W 21:50:45 19° NW 21:53:09 10° NNE
Cosmos 2221 Rocket 3.8 21:46:43 10° N 21:51:04 52° E 21:52:52 31° SE
Envisat 4.2 21:54:06 10° SSW 21:58:49 39° W 22:03:34 10° NNW
Spot 1 4.4 21:56:21 21° S 21:59:29 78° WSW 22:04:27 10° NNW
Cosmos 2263 4.3 21:54:14 10° SSW 22:00:00 80° WNW 22:05:46 10° NNE
Cosmos 1634 Rocket 4.0 21:55:11 10° N 22:01:30 84° W 22:06:36 17° S
NOAA 11 4.2 21:58:58 29° SSE 22:01:47 65° ENE 22:07:13 10° N
Cosmos 1900 4.5 21:57:47 10° NNW 22:02:57 76° WSW 22:05:27 31° SSE
CENTAUR R/B 2.5 21:57:09 10° SW 22:02:59 78° WNW 22:09:37 10° NNE
Tiangong 2 1.2 21:59:54 10° NW 22:03:05 64° NNE 22:03:23 59° ENE
Cosmos 372 Rocket 3.8 21:58:28 10° S 22:03:35 78° ESE 22:08:42 10° NNE
CZ-3A R/B 3.2 22:04:17 10° SW 22:04:45 11° SW 22:04:45 11° SW
Helios 1A 3.9 22:05:41 19° SSW 22:08:24 46° W 22:12:28 10° NNW
Nadezhda 4 Rocket 4.5 22:06:49 32° SE 22:08:34 39° E 22:14:13 10° NNE
COSMOS 2455 4.2 22:03:01 10° SW 22:08:37 40° WNW 22:14:14 10° N
Cosmos 1340 3.5 22:05:30 10° N 22:08:45 35° ENE 22:08:45 35° ENE
SPOT 5 3.6 22:08:10 34° ESE 22:09:39 42° ENE 22:14:38 10° N
CZ-4B DEB 3.4 22:09:44 41° SW 22:10:10 45° W 22:12:59 10° NNW
Cosmos 2369 Rocket 3.4 22:06:55 10° SW 22:12:14 42° WNW 22:17:38 10° N
Cosmos 1269 Rocket 4.4 22:08:41 10° N 22:13:46 46° ENE 22:14:55 39° ESE
Cosmos 1125 Rocket 3.8 22:08:54 10° SSW 22:14:07 68° WNW 22:19:21 10° N
OAO 2 Rocket 4.3 22:13:14 10° W 22:17:39 31° SSW 22:18:25 29° S
SAR-Lupe-4 4.1 22:17:05 41° SSW 22:17:55 53° W 22:21:26 10° NNW
Delta 168 4.3 22:16:31 10° WSW 22:19:00 25° SSW 22:19:00 25° SSW
Lacrosse 5 rocket 4.1 22:20:48 10° W 22:23:09 16° NW 22:25:32 10° N
USA 245 4.5 22:21:01 40° SE 22:23:13 67° ENE 22:29:31 10° N
Cosmos 1606 2.5 22:19:47 10° N 22:23:35 82° W 22:23:46 77° SSW
Delta 7925 Rocket 4.3 22:21:37 10° SW 22:25:13 33° S 22:25:13 33° S
Shenzhou-11 Module 3.5 22:23:35 10° WNW 22:25:36 34° W 22:25:36 34° W
Cosmos 2279 Rocket 4.0 22:29:04 10° N 22:35:19 77° W 22:38:02 36° S
MetOp-B 4.2 22:35:41 44° S 22:37:22 72° WSW 22:42:43 10° NNW
ATLAS 5 CENTAUR R/B 2.6 22:33:37 10° NNW 22:39:42 60° ENE 22:41:08 49° ESE
Okean 1-7 4.3 22:37:16 10° NNW 22:41:19 36° W 22:42:46 28° SW
Meteor 1-27 Rocket 3.6 22:36:39 10° N 22:42:24 78° E 22:43:18 63° SSE
H-2A R/B 2.1 22:42:10 63° ESE 22:42:46 68° ENE 22:48:05 10° N
GPS 2-04 Rocket1 3.5 22:39:26 10° WNW 22:42:02 43° WNW 22:42:02 43° WNW
ARGOS 3.3 22:47:37 52° SSW 22:48:47 68° WSW 22:54:08 10° NNW
Cosmos 1656 Rocket 3.5 22:48:00 56° SSW 22:49:12 90° WNW 22:54:43 10° NNE
Intercosmos 25 Rocket 4.0 22:44:35 10° N 22:50:46 62° ENE 22:50:46 62° ENE
Cosmos 158 Rocket 4.0 22:47:38 10° NNW 22:52:26 61° WSW 22:52:45 60° SW
Cosmos 1733 Rocket 3.7 23:01:47 50° WNW 23:01:47 50° WNW 23:05:50 10° N
SL-08 RB Rocket 4.4 23:07:02 48° W 23:07:02 48° W 23:11:29 10° NNW
Landsat 7 4.3 23:17:28 57° NNW 23:17:28 57° NNW 23:21:17 10° NNW
Meteor 1-14 Rocket 4.5 23:22:20 65° NE 23:22:20 65° NE 23:27:23 10° NNE
Meteor 2-20 Rocket 4.3 23:22:12 85° W 23:22:15 85° W 23:28:24 10° N
USA 215 3.1 23:22:28 72° SSW 23:22:52 74° SW 23:29:27 10° NW
Cosmos 2227 Rocket 4.2 23:21:40 10° NNE 23:24:44 16° NE 23:24:44 16° NE
Lacrosse 4 Rocket 3.0 23:22:56 10° NW 23:25:48 34° WNW 23:25:48 34° WNW
Cosmos 2026 Rocket 4.1 23:28:05 65° NE 23:28:05 65° NE 23:33:31 10° N
Cosmos 2219 3.8 23:25:41 10° N 23:30:23 48° NNE 23:30:23 48° NNE
Terra 2.8 23:33:08 45° NNW 23:33:08 45° NNW 23:36:27 10° NNW
ATLAS CENTAUR R/B 4.0 23:36:09 14° NNE 23:36:09 14° NNE 23:36:48 10° NNE
SL-19 R/B 4.5 23:28:31 10° NNE 23:34:17 80° N 23:34:17 80° N
BREEZE-M DEB (TANK) 3.7 23:36:03 55° NNE 23:36:03 55° NNE 23:44:45 10° NE
Cosmos 2251 Rocket 4.3 23:37:11 10° NNW 23:40:56 48° NNW 23:40:56 48° NNW
SME Rocket 4.2 23:43:23 78° NE 23:43:23 78° NE 23:51:51 10° NNW
H-2A R/B 4.2 23:53:59 22° NNW 23:53:59 22° NNW 23:55:32 10° NNW
GEOS 3 Rocket 4.5 23:54:47 46° NW 23:54:47 46° NW 23:58:23 10° NNW
